Location: Faras
(22.2000°N, 31.4667°E)
Time: 03:28:26
(UTC+00:00)

Daily predictions for brighter satellites

Satellite Brightness Start Highest point End
(mag) Time Altitude Azimuth Time Altitude Azimuth Time Altitude Azimuth
Centaur D AC-28 4.3 00:05:53 66° W 00:08:22 85° NNW 09:56:55 10° SE
IDEFIX/ARIANE 42P 3.9 00:33:06 10° N 00:36:01 34° N 00:36:01 34° N
ADEOS Rocket 3.4 00:42:35 65° SE 00:43:42 79° ENE 00:51:11 10° N
ADEOS II 4.2 00:41:13 10° NNW 00:42:26 16° NNW 00:42:26 16° NNW
Cosmos 1725 Rocket 4.1 00:39:46 10° N 00:45:59 70° E 00:46:06 69° E
Cosmos 2061 Rocket 4.0 00:39:45 10° N 00:45:51 77° ENE 00:45:51 77° ENE
CZ-4B R/B 4.4 00:42:34 10° NNE 00:46:01 45° NNE 00:46:01 45° NNE
CZ-2C R/B 4.2 00:45:05 10° NE 00:49:23 27° E 00:50:54 23° SE
Cosmos 2285 Rocket 4.2 00:51:06 61° SE 00:51:42 64° ESE 00:58:00 10° NNE
Cosmos 1371 Rocket 4.4 00:54:37 59° NE 00:54:37 59° NE 00:58:55 10° NNE
Cosmos 2251 Rocket 4.0 00:51:56 10° N 00:57:04 56° ENE 00:57:43 52° ESE
USA 234 3.6 00:51:25 10° NE 00:57:46 54° SE 00:58:58 47° SSE
Cosmos 2233 Rocket 4.4 00:56:53 10° N 01:02:57 59° E 01:06:34 25° SSE
Cosmos 2016 Rocket 4.1 00:58:40 10° NNW 01:03:51 56° NW 01:03:51 56° NW
Lacrosse 4 Rocket 2.6 01:10:01 38° N 01:10:01 38° N 01:12:56 10° NNE
CZ-2C R/B 4.1 01:07:10 10° NNE 01:10:54 37° E 01:11:00 37° ESE
CZ-3B R/B 2.6 01:16:53 40° NE 01:16:53 40° NE 01:20:48 10° ENE
Meteor 1-16 Rocket 4.4 01:14:47 10° NNW 01:20:07 55° WNW 01:20:07 55° WNW
OAO 2 Rocket 3.8 01:26:40 46° WNW 01:27:31 51° NNW 01:32:41 10° NE
IUS-18 SRM-1 3.6 01:26:39 34° NNW 01:27:50 45° NNE 01:37:32 10° E
Cosmos 1697 Rocket 3.9 01:29:27 26° NW 01:29:27 26° NW 01:33:24 10° N
SL-08 R/B 3.2 01:30:39 30° SSE 01:33:03 90° ENE 01:37:47 10° NNW
CZ-2D R/B 4.4 01:33:07 10° N 01:36:30 36° NW 01:36:30 36° NW
Cosmos 1980 Rocket 2.5 01:37:29 44° W 01:38:20 48° WNW 01:43:48 10° N
ARIANE 5 R/B 3.6 01:35:19 10° NNW 01:39:13 28° WNW 01:39:13 28° WNW
NOSS 3-2 (A) 4.3 01:37:20 16° S 01:41:03 37° ESE 01:46:10 10° NE
Cosmos 1420 Rocket 4.0 01:42:47 45° SW 01:44:08 61° WNW 01:49:16 10° N
Cosmos 1140 Rocket 4.3 01:41:07 10° N 01:46:12 52° ENE 01:51:17 10° SSE
Cosmos 2278 4.1 01:46:15 38° WSW 01:47:41 45° WNW 01:53:08 10° N
Cosmos 1340 3.6 01:49:30 32° NW 01:49:30 32° NW 01:52:09 10° NNW
Intelsat 5-3 Rocket 3.4 01:49:04 32° SW 01:51:20 47° S 01:54:47 10° E
GPS 2-15 Rocket1 3.6 01:50:41 38° SSW 01:51:43 44° S 01:56:08 10° E
GPS 2-04 Rocket1 4.1 01:54:20 20° SSE 01:54:20 20° SSE 01:55:40 10° SSE
Cosmos 1346 Rocket 3.5 01:49:34 15° SSE 01:52:39 51° E 01:56:26 10° NNE
OAO 3 Rocket 4.4 01:50:01 10° NW 01:54:38 41° NNE 01:59:17 10° E
Cosmos 2227 Rocket 2.1 01:51:44 10° NNW 01:57:18 65° WSW 02:02:51 10° S
Cosmos 614 Rocket 4.3 01:53:49 10° NNW 01:58:35 41° W 02:02:07 17° SSW
Cosmos 2297 Rocket 2.5 01:55:47 10° NW 02:01:04 42° WSW 02:06:21 10° S
Meteor 2-10 Rocket 4.4 01:57:41 10° N 02:03:16 56° E 02:08:37 10° SSE
SL-16 R/B 2.6 01:59:22 10° S 02:04:57 65° ESE 02:10:33 10° NNE
Atlas Centaur 2 3.0 02:02:32 21° SW 02:06:32 44° SSE 02:11:39 10° E
OAO 1 Rocket 4.4 02:05:26 27° WSW 02:08:24 79° NNW 02:13:45 10° ENE
Cosmos 2082 4.0 02:02:48 10° NNW 02:08:30 72° ENE 02:14:10 10° SSE
SL-24 R/B 4.4 02:06:50 10° SSE 02:10:25 55° ENE 02:14:01 10° N
APEX 4.4 02:08:57 10° NNW 02:13:59 74° ENE 02:20:12 10° SSE
Cosmos 2228 2.9 02:10:07 10° N 02:14:23 82° W 02:18:41 10° S
ALOS 2.3 02:10:14 10° N 02:14:48 60° WNW 02:19:01 12° SSW
Cosmos 407 Rocket 3.5 02:10:45 10° NNW 02:16:00 61° WSW 02:21:15 10° S
SJ-6F 4.3 02:16:07 10° N 02:20:11 82° WNW 02:24:14 10° SSW
Cosmos 1452 Rocket 3.7 02:17:36 15° SW 02:21:45 50° WNW 02:26:51 10° N
IRAS Rocket 4.2 02:16:32 10° SSE 02:22:03 85° WSW 02:27:39 10° NNW
Cosmos 1703 3.8 02:18:37 10° S 02:22:26 59° E 02:26:14 10° NNE
COSMOS 2455 3.6 02:18:06 10° NW 02:23:06 28° WSW 02:28:06 10° SSW
Milstar 3 3.9 02:21:02 16° W 02:26:00 33° SSW 02:35:09 10° SE
CZ-2C R/B 3.7 02:23:21 10° NNW 02:27:21 23° WNW 02:30:17 15° WSW
FENGYUN 3A 4.1 02:23:46 10° N 02:28:47 41° WNW 02:33:48 10° SW
Cosmos 1513 Rocket 4.5 02:26:22 10° NNW 02:32:25 60° W 02:38:22 10° S
Cosmos 1464 Rocket 4.0 02:26:22 10° NNW 02:32:28 66° W 02:38:37 10° S
Okean 1-7 Rocket 3.6 02:30:32 10° SSW 02:34:58 66° W 02:39:29 10° N
Cosmos 1331 Rocket 4.1 02:29:55 10° S 02:35:02 80° ESE 02:40:11 10° NNE
Cosmos 2219 4.3 02:30:54 10° NW 02:35:11 22° WSW 02:39:29 10° SSW
CENTAUR R/B 2.3 02:29:57 10° SSW 02:35:12 78° ESE 02:41:15 10° NNE
Cosmos 2322 Rocket 2.2 02:31:09 10° SSW 02:36:47 82° WNW 02:42:28 10° NNE
CZ-4B R/B 4.4 02:33:10 10° NNE 02:37:36 70° E 02:41:55 10° S
Cosmos 2034 Rocket 4.1 02:32:04 10° N 02:38:25 89° W 02:44:42 10° S
Meteor 1-31 Rocket 3.1 02:35:21 10° NNE 02:39:14 69° E 02:43:08 10° S
Cosmos 1484 Rocket 3.5 02:35:41 10° N 02:39:17 35° WNW 02:42:50 10° SW
USA 234 4.3 02:34:57 10° NNE 02:40:27 30° NW 02:45:55 10° W
Cosmos 1954 Rocket 4.0 02:35:51 10° NNW 02:41:07 85° W 02:46:26 10° SSE
Cosmos 405 3.9 02:39:20 10° NNW 02:42:22 28° W 02:45:23 10° SSW
Cosmos 1110 Rocket 4.1 02:44:56 10° SSW 02:50:03 61° WNW 02:55:11 10° N
Delta 2 Rocket 3.9 02:47:55 10° W 02:50:44 25° SW 02:53:35 10° SSE
Cosmos 2237 4.3 02:45:22 10° SSW 02:51:05 89° ESE 02:56:49 10° NNE
GOES 2 Rocket 4.2 02:47:56 10° W 02:51:16 23° SSW 02:54:39 10° SSE
H-2A R/B 3.8 02:47:59 10° NNE 02:51:35 47° E 02:55:13 10° S
Cosmos 1184 Rocket 2.7 02:50:52 10° S 02:54:01 86° E 02:57:10 10° N
CZ-4B R/B 4.3 02:52:08 10° NNE 02:55:34 38° E 02:59:07 10° S
USA 32 4.4 02:50:34 10° NNW 02:55:34 45° W 03:00:32 10° SSW
